TimeCDT,TemperatureF,Dew PointF,Humidity,Sea Level PressureIn,VisibilityMPH,Wind Direction,Wind SpeedMPH,Gust SpeedMPH,PrecipitationIn,Events,Conditions,WindDirDegrees,DateUTC
12:58 AM,61.2,56.3,84,30.21,10.0,South,4.6,-,N/A,,Clear,190,2013-03-30 05:58:00
1:58 AM,60.4,55.4,83,30.20,10.0,SSW,4.6,-,N/A,,Clear,200,2013-03-30 06:58:00
2:58 AM,58.5,55.0,88,30.19,10.0,Calm,Calm,-,N/A,,Clear,0,2013-03-30 07:58:00
3:58 AM,56.5,54.9,94,30.18,10.0,Calm,Calm,-,N/A,,Clear,0,2013-03-30 08:58:00
4:08 AM,57.2,55.4,94,30.17,8.0,Calm,Calm,-,N/A,,Clear,0,2013-03-30 09:08:00
4:18 AM,55.4,55.4,100,30.17,10.0,Calm,Calm,-,N/A,,Clear,0,2013-03-30 09:18:00
4:58 AM,55.8,54.1,94,30.18,10.0,Calm,Calm,-,N/A,,Clear,0,2013-03-30 09:58:00
5:48 AM,55.4,53.6,94,30.16,4.0,NE,1.2,-,N/A,,Clear,40,2013-03-30 10:48:00
5:58 AM,55.6,54.5,96,30.17,7.0,Calm,Calm,-,N/A,,Clear,0,2013-03-30 10:58:00
6:03 AM,55.4,53.6,94,30.17,7.0,Calm,Calm,-,N/A,,Clear,0,2013-03-30 11:03:00
6:08 AM,55.4,53.6,94,30.17,7.0,Calm,Calm,-,N/A,,Clear,0,2013-03-30 11:08:00
6:23 AM,55.4,53.6,94,30.17,4.0,Calm,Calm,-,N/A,,Clear,0,2013-03-30 11:23:00
6:28 AM,55.4,53.6,94,30.17,2.5,Calm,Calm,-,N/A,,Clear,0,2013-03-30 11:28:00
6:33 AM,55.4,53.6,94,30.17,4.0,Calm,Calm,-,N/A,,Clear,0,2013-03-30 11:33:00
6:38 AM,55.4,53.6,94,30.17,1.2,Calm,Calm,-,N/A,,Clear,0,2013-03-30 11:38:00
6:43 AM,55.4,53.6,94,30.17,0.5,Calm,Calm,-,N/A,Fog,Fog,0,2013-03-30 11:43:00
6:48 AM,53.6,53.6,100,30.18,0.5,Calm,Calm,-,N/A,Fog,Fog,0,2013-03-30 11:48:00
6:53 AM,53.6,53.6,100,30.18,1.8,Calm,Calm,-,N/A,,Clear,0,2013-03-30 11:53:00
6:58 AM,53.8,52.7,96,30.19,4.0,Calm,Calm,-,N/A,,Clear,0,2013-03-30 11:58:00
7:58 AM,55.8,54.9,97,30.20,10.0,Calm,Calm,-,N/A,,Clear,0,2013-03-30 12:58:00
8:58 AM,64.9,57.2,76,30.20,10.0,South,6.9,-,N/A,,Clear,190,2013-03-30 13:58:00
9:58 AM,67.6,55.9,66,30.20,10.0,SSW,9.2,-,N/A,,Scattered Clouds,200,2013-03-30 14:58:00
10:58 AM,69.8,55.2,60,30.20,10.0,SSW,9.2,-,N/A,,Clear,200,2013-03-30 15:58:00
11:58 AM,71.8,54.0,53,30.20,10.0,SSW,12.7,-,N/A,,Partly Cloudy,210,2013-03-30 16:58:00
12:58 PM,72.7,52.9,50,30.18,10.0,SW,10.4,-,N/A,,Clear,230,2013-03-30 17:58:00
1:58 PM,73.0,53.8,51,30.16,10.0,SSW,9.2,-,N/A,,Mostly Cloudy,210,2013-03-30 18:58:00
2:58 PM,71.2,55.2,57,30.13,10.0,South,8.1,-,N/A,,Overcast,180,2013-03-30 19:58:00
3:58 PM,70.7,56.7,61,30.11,10.0,South,9.2,-,N/A,,Scattered Clouds,180,2013-03-30 20:58:00
4:58 PM,68.9,57.6,67,30.07,10.0,South,11.5,-,N/A,,Mostly Cloudy,170,2013-03-30 21:58:00
5:58 PM,69.4,59.0,69,30.08,10.0,South,10.4,-,N/A,,Scattered Clouds,180,2013-03-30 22:58:00
6:58 PM,67.1,59.7,77,30.07,10.0,South,8.1,-,N/A,,Clear,190,2013-03-30 23:58:00
7:58 PM,66.2,60.6,82,30.07,10.0,SSW,10.4,-,N/A,,Clear,200,2013-03-31 00:58:00
8:58 PM,66.4,60.4,81,30.06,10.0,SSW,11.5,-,N/A,,Clear,200,2013-03-31 01:58:00
9:58 PM,64.9,60.6,86,30.08,10.0,SW,8.1,-,N/A,,Clear,220,2013-03-31 02:58:00
10:58 PM,64.2,60.4,87,30.09,10.0,WSW,5.8,-,N/A,,Scattered Clouds,240,2013-03-31 03:58:00
11:58 PM,64.0,60.4,88,30.09,10.0,SW,5.8,-,N/A,,Overcast,220,2013-03-31 04:58:00